Time,TemperatureF,DewpointF,PressureIn,WindDirection,WindDirectionDegrees,WindSpeedMPH,WindSpeedGustMPH,Humidity,HourlyPrecipIn,Conditions,Clouds,dailyrainin,SoftwareType,DateUTC
2013-05-04 00:01:00,44.0,26.0,-100.00,NE,50,0.0,4.0,47,-99.99,,,-99.99,,2013-05-04 06:01:00,
2013-05-04 00:11:00,44.0,26.0,-100.00,NE,50,0.0,4.0,47,-99.99,,,-99.99,,2013-05-04 06:11:00,
2013-05-04 00:21:00,44.0,26.0,-100.00,NE,55,1.0,2.0,49,-99.99,,,-99.99,,2013-05-04 06:21:00,
2013-05-04 00:32:00,44.0,26.0,-100.00,NE,55,1.0,2.0,49,-99.99,,,-99.99,,2013-05-04 06:32:00,
2013-05-04 00:41:00,43.0,26.0,-100.00,ENE,65,1.0,4.0,49,-99.99,,,-99.99,,2013-05-04 06:41:00,
2013-05-04 00:52:00,43.0,26.0,-100.00,ENE,65,1.0,4.0,49,-99.99,,,-99.99,,2013-05-04 06:52:00,
2013-05-04 01:01:00,43.0,26.0,-100.00,ENE,65,1.0,4.0,49,-99.99,,,-99.99,,2013-05-04 07:01:00,
2013-05-04 01:11:00,42.0,26.0,-100.00,ENE,75,0.0,2.0,52,-99.99,,,-99.99,,2013-05-04 07:11:00,
2013-05-04 01:21:00,42.0,26.0,-100.00,ENE,75,0.0,2.0,52,-99.99,,,-99.99,,2013-05-04 07:21:00,
2013-05-04 01:32:00,41.0,26.0,-100.00,NE,55,0.0,1.0,54,-99.99,,,-99.99,,2013-05-04 07:32:00,
2013-05-04 01:41:00,41.0,26.0,-100.00,NE,55,0.0,1.0,54,-99.99,,,-99.99,,2013-05-04 07:41:00,
2013-05-04 01:52:00,41.0,27.0,-100.00,NE,45,1.0,3.0,55,-99.99,,,-99.99,,2013-05-04 07:52:00,
2013-05-04 02:01:00,41.0,27.0,-100.00,NE,45,1.0,3.0,55,-99.99,,,-99.99,,2013-05-04 08:01:00,
2013-05-04 02:11:00,40.0,26.0,-100.00,ENE,65,2.0,4.0,55,-99.99,,,-99.99,,2013-05-04 08:11:00,
2013-05-04 02:21:00,40.0,26.0,-100.00,ENE,65,2.0,4.0,55,-99.99,,,-99.99,,2013-05-04 08:21:00,
2013-05-04 02:31:00,40.0,26.0,-100.00,ENE,65,2.0,4.0,55,-99.99,,,-99.99,,2013-05-04 08:31:00,
2013-05-04 02:41:00,40.0,26.0,-100.00,ENE,65,2.0,4.0,55,-99.99,,,-99.99,,2013-05-04 08:41:00,
2013-05-04 02:52:00,40.0,26.0,-100.00,NE,45,2.0,3.0,56,-99.99,,,-99.99,,2013-05-04 08:52:00,
2013-05-04 03:02:00,40.0,26.0,-100.00,NE,45,2.0,3.0,56,-99.99,,,-99.99,,2013-05-04 09:02:00,
2013-05-04 03:11:00,40.0,26.0,-100.00,NE,45,2.0,4.0,56,-99.99,,,-99.99,,2013-05-04 09:11:00,
2013-05-04 03:21:00,39.0,26.0,-100.00,NNE,25,1.0,2.0,57,-99.99,,,-99.99,,2013-05-04 09:21:00,
2013-05-04 03:32:00,39.0,26.0,-100.00,NNE,25,1.0,2.0,57,-99.99,,,-99.99,,2013-05-04 09:32:00,
2013-05-04 03:42:00,38.0,26.0,-100.00,NE,40,1.0,4.0,59,-99.99,,,-99.99,,2013-05-04 09:42:00,
2013-05-04 03:52:00,38.0,26.0,-100.00,NE,40,1.0,4.0,59,-99.99,,,-99.99,,2013-05-04 09:52:00,
2013-05-04 04:02:00,38.0,26.0,-100.00,ENE,75,0.0,4.0,60,-99.99,,,-99.99,,2013-05-04 10:02:00,
2013-05-04 04:12:00,38.0,26.0,-100.00,ENE,75,0.0,4.0,60,-99.99,,,-99.99,,2013-05-04 10:12:00,
2013-05-04 04:22:00,38.0,26.0,-100.00,NE,45,1.0,4.0,61,-99.99,,,-99.99,,2013-05-04 10:22:00,
2013-05-04 04:33:00,38.0,26.0,-100.00,NE,45,1.0,4.0,61,-99.99,,,-99.99,,2013-05-04 10:33:00,
2013-05-04 04:42:00,38.0,26.0,-100.00,NE,45,1.0,4.0,61,-99.99,,,-99.99,,2013-05-04 10:42:00,
2013-05-04 04:53:00,38.0,26.0,-100.00,NE,45,1.0,4.0,61,-99.99,,,-99.99,,2013-05-04 10:53:00,
2013-05-04 05:02:00,37.0,26.0,-100.00,ENE,60,0.0,5.0,62,-99.99,,,-99.99,,2013-05-04 11:02:00,
2013-05-04 05:21:00,37.0,26.0,-100.00,East,85,1.0,3.0,63,-99.99,,,-99.99,,2013-05-04 11:21:00,
2013-05-04 05:32:00,37.0,26.0,-100.00,East,85,0.0,6.0,63,-99.99,,,-99.99,,2013-05-04 11:32:00,
2013-05-04 05:42:00,36.0,26.0,-100.00,NE,45,0.0,4.0,64,-99.99,,,-99.99,,2013-05-04 11:42:00,
2013-05-04 06:04:00,36.0,25.0,-100.00,ENE,65,0.0,6.0,65,-99.99,,,-99.99,,2013-05-04 12:04:00,
2013-05-04 06:22:00,36.0,26.0,-100.00,ENE,60,1.0,4.0,65,-99.99,,,-99.99,,2013-05-04 12:22:00,
2013-05-04 06:34:00,36.0,26.0,-100.00,ENE,60,1.0,4.0,65,-99.99,,,-99.99,,2013-05-04 12:34:00,
2013-05-04 06:41:00,35.0,25.0,-100.00,SE,130,1.0,4.0,66,-99.99,,,-99.99,,2013-05-04 12:41:00,
2013-05-04 06:52:00,35.0,25.0,-100.00,SE,130,1.0,4.0,66,-99.99,,,-99.99,,2013-05-04 12:52:00,
2013-05-04 07:01:00,35.0,26.0,-100.00,NE,55,1.0,4.0,67,-99.99,,,-99.99,,2013-05-04 13:01:00,
2013-05-04 07:11:00,35.0,26.0,-100.00,NE,55,1.0,4.0,67,-99.99,,,-99.99,,2013-05-04 13:11:00,
2013-05-04 07:32:00,36.0,26.0,-100.00,ENE,65,1.0,4.0,66,-99.99,,,-99.99,,2013-05-04 13:32:00,
2013-05-04 07:41:00,36.0,26.0,-100.00,NE,35,1.0,4.0,67,-99.99,,,-99.99,,2013-05-04 13:41:00,
2013-05-04 07:52:00,36.0,26.0,-100.00,NE,35,1.0,4.0,67,-99.99,,,-99.99,,2013-05-04 13:52:00,
2013-05-04 08:01:00,37.0,27.0,-100.00,East,100,1.0,4.0,67,-99.99,,,-99.99,,2013-05-04 14:01:00,
2013-05-04 08:21:00,37.0,27.0,-100.00,ENE,60,2.0,6.0,65,-99.99,,,-99.99,,2013-05-04 14:21:00,
2013-05-04 08:32:00,38.0,28.0,-100.00,NE,55,1.0,6.0,65,-99.99,,,-99.99,,2013-05-04 14:32:00,
2013-05-04 08:41:00,39.0,28.0,-100.00,East,80,1.0,3.0,64,-99.99,,,-99.99,,2013-05-04 14:41:00,
2013-05-04 08:51:00,39.0,28.0,-100.00,East,80,1.0,3.0,64,-99.99,,,-99.99,,2013-05-04 14:51:00,
2013-05-04 09:01:00,41.0,29.0,-100.00,East,90,2.0,5.0,60,-99.99,,,-99.99,,2013-05-04 15:01:00,
2013-05-04 09:11:00,41.0,29.0,-100.00,East,90,2.0,5.0,60,-99.99,,,-99.99,,2013-05-04 15:11:00,
2013-05-04 09:21:00,43.0,29.0,-100.00,East,95,1.0,6.0,58,-99.99,,,-99.99,,2013-05-04 15:21:00,
2013-05-04 09:33:00,43.0,29.0,-100.00,East,95,1.0,6.0,58,-99.99,,,-99.99,,2013-05-04 15:33:00,
2013-05-04 09:42:00,43.0,29.0,-100.00,East,95,1.0,6.0,58,-99.99,,,-99.99,,2013-05-04 15:42:00,
2013-05-04 09:53:00,43.0,29.0,-100.00,East,95,1.0,6.0,58,-99.99,,,-99.99,,2013-05-04 15:53:00,
2013-05-04 10:03:00,47.0,30.0,-100.00,East,90,4.0,7.0,50,-99.99,,,-99.99,,2013-05-04 16:03:00,
2013-05-04 10:12:00,47.0,30.0,-100.00,East,90,4.0,7.0,50,-99.99,,,-99.99,,2013-05-04 16:12:00,
2013-05-04 10:22:00,51.0,29.0,-100.00,East,90,4.0,7.0,41,-99.99,,,-99.99,,2013-05-04 16:22:00,
2013-05-04 10:33:00,51.0,29.0,-100.00,East,90,4.0,7.0,41,-99.99,,,-99.99,,2013-05-04 16:33:00,
2013-05-04 10:42:00,52.0,29.0,-100.00,East,85,4.0,9.0,39,-99.99,,,-99.99,,2013-05-04 16:42:00,
2013-05-04 10:52:00,54.0,28.0,-100.00,East,90,4.0,7.0,36,-99.99,,,-99.99,,2013-05-04 16:52:00,
2013-05-04 11:02:00,54.0,28.0,-100.00,East,90,4.0,7.0,36,-99.99,,,-99.99,,2013-05-04 17:02:00,
2013-05-04 11:12:00,56.0,29.0,-100.00,East,80,4.0,7.0,34,-99.99,,,-99.99,,2013-05-04 17:12:00,
2013-05-04 11:22:00,56.0,29.0,-100.00,East,80,4.0,7.0,34,-99.99,,,-99.99,,2013-05-04 17:22:00,
2013-05-04 11:32:00,57.0,28.0,-100.00,East,90,6.0,9.0,32,-99.99,,,-99.99,,2013-05-04 17:32:00,
2013-05-04 11:42:00,57.0,28.0,-100.00,East,90,6.0,9.0,32,-99.99,,,-99.99,,2013-05-04 17:42:00,
2013-05-04 11:52:00,58.0,29.0,-100.00,East,95,4.0,7.0,31,-99.99,,,-99.99,,2013-05-04 17:52:00,
2013-05-04 12:01:00,58.0,29.0,-100.00,East,95,4.0,7.0,31,-99.99,,,-99.99,,2013-05-04 18:01:00,
2013-05-04 12:12:00,58.0,29.0,-100.00,East,95,4.0,7.0,31,-99.99,,,-99.99,,2013-05-04 18:12:00,
2013-05-04 12:21:00,58.0,29.0,-100.00,East,95,4.0,7.0,31,-99.99,,,-99.99,,2013-05-04 18:21:00,
2013-05-04 13:11:00,65.0,25.0,-100.00,SSW,210,5.0,8.0,21,-99.99,,,-99.99,,2013-05-04 19:11:00,
2013-05-04 13:21:00,65.0,25.0,-100.00,SSW,210,5.0,8.0,21,-99.99,,,-99.99,,2013-05-04 19:21:00,
2013-05-04 13:31:00,65.0,25.0,-100.00,SSW,210,5.0,8.0,21,-99.99,,,-99.99,,2013-05-04 19:31:00,
2013-05-04 13:42:00,66.0,23.0,-100.00,SW,220,7.0,12.0,18,-99.99,,,-99.99,,2013-05-04 19:42:00,
2013-05-04 13:52:00,66.0,23.0,-100.00,SW,220,7.0,12.0,18,-99.99,,,-99.99,,2013-05-04 19:52:00,
2013-05-04 14:02:00,66.0,23.0,-100.00,WSW,240,6.0,12.0,18,-99.99,,,-99.99,,2013-05-04 20:02:00,
2013-05-04 14:11:00,66.0,21.0,-100.00,WSW,240,7.0,11.0,17,-99.99,,,-99.99,,2013-05-04 20:11:00,
2013-05-04 14:21:00,66.0,21.0,-100.00,WSW,240,7.0,11.0,17,-99.99,,,-99.99,,2013-05-04 20:21:00,
2013-05-04 14:32:00,66.0,21.0,-100.00,WSW,240,7.0,11.0,17,-99.99,,,-99.99,,2013-05-04 20:32:00,
2013-05-04 14:41:00,66.0,21.0,-100.00,WSW,240,7.0,11.0,17,-99.99,,,-99.99,,2013-05-04 20:41:00,
2013-05-04 15:11:00,67.0,22.0,-100.00,SW,215,9.0,20.0,18,-99.99,,,-99.99,,2013-05-04 21:11:00,
2013-05-04 15:22:00,67.0,22.0,-100.00,SW,215,9.0,20.0,18,-99.99,,,-99.99,,2013-05-04 21:22:00,
2013-05-04 15:33:00,67.0,22.0,-100.00,SW,215,9.0,20.0,18,-99.99,,,-99.99,,2013-05-04 21:33:00,
2013-05-04 15:43:00,66.0,23.0,-100.00,SW,235,10.0,16.0,18,-99.99,,,-99.99,,2013-05-04 21:43:00,
2013-05-04 15:52:00,66.0,23.0,-100.00,SW,235,10.0,16.0,18,-99.99,,,-99.99,,2013-05-04 21:52:00,
2013-05-04 16:03:00,66.0,23.0,-100.00,WSW,255,2.0,8.0,18,-99.99,,,-99.99,,2013-05-04 22:03:00,
2013-05-04 16:12:00,65.0,22.0,-100.00,SW,215,8.0,12.0,18,-99.99,,,-99.99,,2013-05-04 22:12:00,
2013-05-04 16:22:00,65.0,22.0,-100.00,SW,230,11.0,19.0,19,-99.99,,,-99.99,,2013-05-04 22:22:00,
2013-05-04 16:32:00,65.0,23.0,-100.00,SW,220,5.0,17.0,20,-99.99,,,-99.99,,2013-05-04 22:32:00,
2013-05-04 16:42:00,66.0,23.0,-100.00,SSW,210,2.0,6.0,18,-99.99,,,-99.99,,2013-05-04 22:42:00,
2013-05-04 16:52:00,66.0,23.0,-100.00,SSW,210,2.0,6.0,18,-99.99,,,-99.99,,2013-05-04 22:52:00,
2013-05-04 17:02:00,66.0,23.0,-100.00,SSW,210,2.0,6.0,18,-99.99,,,-99.99,,2013-05-04 23:02:00,
2013-05-04 17:11:00,65.0,22.0,-100.00,SW,215,1.0,6.0,18,-99.99,,,-99.99,,2013-05-04 23:11:00,
2013-05-04 17:21:00,65.0,22.0,-100.00,WSW,240,0.0,2.0,18,-99.99,,,-99.99,,2013-05-04 23:21:00,
2013-05-04 17:32:00,65.0,22.0,-100.00,WSW,240,0.0,2.0,18,-99.99,,,-99.99,,2013-05-04 23:32:00,
2013-05-04 17:42:00,65.0,22.0,-100.00,WSW,240,0.0,2.0,18,-99.99,,,-99.99,,2013-05-04 23:42:00,
2013-05-04 17:52:00,65.0,22.0,-100.00,WSW,240,0.0,2.0,18,-99.99,,,-99.99,,2013-05-04 23:52:00,
2013-05-04 18:01:00,65.0,21.0,-100.00,WNW,300,1.0,3.0,18,-99.99,,,-99.99,,2013-05-05 00:01:00,
2013-05-04 18:11:00,65.0,21.0,-100.00,WNW,300,1.0,3.0,18,-99.99,,,-99.99,,2013-05-05 00:11:00,
2013-05-04 18:21:00,64.0,22.0,-100.00,West,280,2.0,4.0,19,-99.99,,,-99.99,,2013-05-05 00:21:00,
2013-05-04 18:31:00,64.0,22.0,-100.00,West,280,2.0,4.0,19,-99.99,,,-99.99,,2013-05-05 00:31:00,
2013-05-04 18:42:00,64.0,23.0,-100.00,West,260,2.0,3.0,20,-99.99,,,-99.99,,2013-05-05 00:42:00,
2013-05-04 18:52:00,64.0,23.0,-100.00,West,260,2.0,3.0,20,-99.99,,,-99.99,,2013-05-05 00:52:00,
2013-05-04 19:01:00,64.0,23.0,-100.00,WSW,250,1.0,3.0,20,-99.99,,,-99.99,,2013-05-05 01:01:00,
2013-05-04 19:11:00,63.0,25.0,-100.00,West,260,0.0,0.0,22,-99.99,,,-99.99,,2013-05-05 01:11:00,
2013-05-04 19:21:00,63.0,25.0,-100.00,West,260,0.0,0.0,22,-99.99,,,-99.99,,2013-05-05 01:21:00,
2013-05-04 19:32:00,62.0,26.0,-100.00,SE,130,0.0,1.0,24,-99.99,,,-99.99,,2013-05-05 01:32:00,
2013-05-04 19:42:00,62.0,26.0,-100.00,SE,130,0.0,1.0,24,-99.99,,,-99.99,,2013-05-05 01:42:00,
2013-05-04 19:52:00,61.0,26.0,-100.00,North,0,2.0,15.0,25,-99.99,,,-99.99,,2013-05-05 01:52:00,
2013-05-04 20:02:00,61.0,26.0,-100.00,North,0,2.0,15.0,25,-99.99,,,-99.99,,2013-05-05 02:02:00,
2013-05-04 20:11:00,60.0,27.0,-100.00,ENE,70,2.0,8.0,27,-99.99,,,-99.99,,2013-05-05 02:11:00,
2013-05-04 20:21:00,60.0,27.0,-100.00,ENE,70,2.0,8.0,27,-99.99,,,-99.99,,2013-05-05 02:21:00,
2013-05-04 20:31:00,60.0,27.0,-100.00,NE,35,4.0,11.0,28,-99.99,,,-99.99,,2013-05-05 02:31:00,
2013-05-04 20:42:00,60.0,27.0,-100.00,NE,35,4.0,11.0,28,-99.99,,,-99.99,,2013-05-05 02:42:00,
2013-05-04 20:51:00,59.0,28.0,-100.00,West,275,1.0,12.0,29,-99.99,,,-99.99,,2013-05-05 02:51:00,
2013-05-04 21:01:00,59.0,28.0,-100.00,West,275,1.0,12.0,29,-99.99,,,-99.99,,2013-05-05 03:01:00,
2013-05-04 21:11:00,59.0,28.0,-100.00,West,275,1.0,12.0,29,-99.99,,,-99.99,,2013-05-05 03:11:00,
2013-05-04 21:21:00,59.0,28.0,-100.00,West,275,1.0,12.0,29,-99.99,,,-99.99,,2013-05-05 03:21:00,
2013-05-04 21:32:00,58.0,29.0,-100.00,East,95,1.0,6.0,32,-99.99,,,-99.99,,2013-05-05 03:32:00,
2013-05-04 21:42:00,58.0,29.0,-100.00,East,95,1.0,6.0,32,-99.99,,,-99.99,,2013-05-05 03:42:00,
2013-05-04 21:53:00,55.0,31.0,-100.00,North,5,2.0,11.0,39,-99.99,,,-99.99,,2013-05-05 03:53:00,
2013-05-04 22:02:00,55.0,31.0,-100.00,North,5,2.0,11.0,39,-99.99,,,-99.99,,2013-05-05 04:02:00,
2013-05-04 22:12:00,55.0,32.0,-100.00,West,270,1.0,7.0,42,-99.99,,,-99.99,,2013-05-05 04:12:00,
2013-05-04 22:22:00,55.0,32.0,-100.00,West,270,1.0,7.0,42,-99.99,,,-99.99,,2013-05-05 04:22:00,
2013-05-04 22:32:00,53.0,32.0,-100.00,East,100,0.0,1.0,44,-99.99,,,-99.99,,2013-05-05 04:32:00,
2013-05-04 22:43:00,53.0,32.0,-100.00,East,100,0.0,1.0,44,-99.99,,,-99.99,,2013-05-05 04:43:00,
2013-05-04 22:52:00,53.0,32.0,-100.00,ENE,70,0.0,1.0,45,-99.99,,,-99.99,,2013-05-05 04:52:00,
2013-05-04 23:02:00,53.0,32.0,-100.00,ENE,70,0.0,1.0,45,-99.99,,,-99.99,,2013-05-05 05:02:00,
2013-05-04 23:12:00,52.0,32.0,-100.00,SSE,160,0.0,1.0,46,-99.99,,,-99.99,,2013-05-05 05:12:00,
2013-05-04 23:21:00,52.0,32.0,-100.00,SSE,160,0.0,1.0,46,-99.99,,,-99.99,,2013-05-05 05:21:00,
2013-05-04 23:31:00,51.0,33.0,-100.00,South,170,0.0,3.0,48,-99.99,,,-99.99,,2013-05-05 05:31:00,
2013-05-04 23:42:00,51.0,33.0,-100.00,South,170,0.0,3.0,48,-99.99,,,-99.99,,2013-05-05 05:42:00,
2013-05-04 23:51:00,51.0,33.0,-100.00,South,170,0.0,3.0,48,-99.99,,,-99.99,,2013-05-05 05:51:00,